Regional Weather Roundup
Issued by NWS

Home | Current Version | Previous Version | Graphics & Text | Print | Product List | Glossary On
Versions: 1 2 3 4 5 6 7 8 9 10 11 12 13 14 15 16 17 18 19 20 21 22 23 24 25 26 27 28 29 30 31 32 33 34 35 36 37 38 39 40 41 42 43 44 45 46 47 48 49 50
000
ASUS45 KCYS 281710
RWRWY

WYOMING REGIONAL WEATHER ROUNDUP
NATIONAL WEATHER SERVICE CHEYENNE WY
1100 AM MDT SAT MAY 28 2016

NOTE:  "FAIR" INDICATES FEW OR NO CLOUDS BELOW 12,000 FEET
WITH NO SIGNIFICANT WEATHER AND/OR OBSTRUCTIONS TO VISIBILITY.

WYZ001-281800-
YELLOWSTONE NATIONAL PARK

CITY           SKY/WX    TMP DP  RH WIND       PRES   REMARKS
LK YELLOWSTONE   N/A     45  25  45 VRB3      30.11S
W YELLOWSTONE  NOT AVBL

$$
WYZ002>013-054>058-071-098>099-281800-
NORTHERN WYOMING

CITY           SKY/WX    TMP DP  RH WIND       PRES   REMARKS
JACKSON        SUNNY     54  21  28 SW13G18   30.07F
CODY           FAIR      54  43  66 NE6       30.00F
GREYBULL       FAIR      57  48  72 CALM      29.98S
WORLAND        CLOUDY    59  43  55 CALM      29.99S
SHERIDAN       CLOUDY    58  46  64 NW9       30.00S
BUFFALO        CLOUDY    53  44  71 N13G24    30.02R
GILLETTE       PTSUNNY   62  46  55 NW12      29.97S
HULETT         CLOUDY    61  46  59 N6        29.98R
NEWCASTLE      FAIR      61  43  51 W10       29.97R

$$
WYZ014>020-022>026-101>103-281800-
CENTRAL WYOMING

CITY           SKY/WX    TMP DP  RH WIND       PRES   REMARKS
BIG PINEY      PTSUNNY   53  32  44 CALM      30.11S
PINEDALE       FAIR      50  30  46 CALM      30.12S
DUBOIS         FAIR      52  18  25 W23G32    30.04F
LANDER         FAIR      61  41  47 E5        30.00S
RIVERTON       FAIR      61  40  45 CALM      30.01S
CASPER         CLOUDY    59  40  49 W8        29.99S
DOUGLAS          N/A    N/A N/A N/A MISG      29.98S

$$
WYZ021-027>030-104>119-281800-
SOUTHERN WYOMING

CITY           SKY/WX    TMP DP  RH WIND       PRES   REMARKS
EVANSTON       FAIR      55  36  48 SW12      30.11F
KEMMERER         N/A     54  36  50 W7        30.12F
FORT BRIDGER   SUNNY     57  37  47 W13G22    30.14F
ROCK SPRINGS   FAIR      56  33  42 SW15      30.10S
DIXON          PTSUNNY   58  40  50 W9        30.14S
RAWLINS        PTSUNNY   56  34  43 W15G32    30.09S
SARATOGA       FAIR      55  34  44 W20G31    30.12R
LARAMIE        CLOUDY    55  33  43 VRB6      30.08R
CHEYENNE       FAIR      63  35  35 MISG      30.04S
TORRINGTON     FAIR      66  44  45 VRB3      29.96R
PINE BLUFFS    PTSUNNY   63  37  39 NW10      30.01S

$$



USA.gov is the U.S. government's official web portal to all federal, state and local government web resources and services.